Volver al catálogo

STARLINK-1362

ActivoComunicacionesVLEO
NORAD 45538·PAYLOAD·🇺🇸 United States

Lanzado Apr 22, 2020 desde Cape Canaveral Space Force Station

Loading…

Próximos Pases (próximas 24 horas)

TLE

ActualizadoSource: CelesTrak SupGP

Época: Sep 14, 2026, 20:30 UTC

1 45538C 20025H   26257.85465278  .00028079  00000+0  57151-3 0  2575
2 45538  53.1515 292.2167 0001959  74.9185 253.3267 15.45666758    16

Sigue STARLINK-1362 en tiempo real con AllMySat

Download on the App Store